�������l�o���
Date,Time,MP-1(��Sv/h),MP-2(��Sv/h),MP-3(��Sv/h),MP-4(��Sv/h),MP-5(��Sv/h),MP-6(��Sv/h),MP-7(��Sv/h),MP-8(��Sv/h),����,����(m/s),���J
2019/04/30,00:00,0.759,1.112,0.762,1.396,1.033,0.439,0.768,0.729,��,6.4,��
2019/04/30,00:10,0.760,1.110,0.762,1.398,1.031,0.436,0.770,0.729,��,7.9,��
2019/04/30,00:20,0.758,1.109,0.763,1.397,1.032,0.436,0.770,0.731,��,8.0,��
2019/04/30,00:30,0.760,1.108,0.762,1.395,1.033,0.437,0.769,0.728,��,7.5,��
2019/04/30,00:40,0.758,1.111,0.763,1.398,1.031,0.438,0.768,0.726,��,6.7,��
2019/04/30,00:50,0.759,1.111,0.763,1.396,1.031,0.437,0.769,0.729,��,7.0,��
2019/04/30,01:00,0.759,1.109,0.762,1.396,1.031,0.438,0.771,0.730,��,6.2,��
2019/04/30,01:10,0.757,1.111,0.760,1.399,1.029,0.439,0.768,0.728,��,5.7,��
2019/04/30,01:20,0.759,1.109,0.761,1.395,1.032,0.438,0.770,0.730,��,5.1,��
2019/04/30,01:30,0.760,1.109,0.763,1.397,1.031,0.436,0.770,0.727,��,6.2,��
2019/04/30,01:40,0.758,1.109,0.761,1.397,1.032,0.437,0.770,0.729,��,6.6,��
2019/04/30,01:50,0.758,1.111,0.764,1.399,1.031,0.437,0.770,0.730,��,7.6,��
2019/04/30,02:00,0.759,1.109,0.762,1.396,1.033,0.438,0.771,0.728,��,6.4,�L
2019/04/30,02:10,0.761,1.109,0.763,1.396,1.030,0.438,0.769,0.727,��,6.4,�L
2019/04/30,02:20,0.760,1.109,0.763,1.399,1.033,0.439,0.770,0.729,��,6.6,�L
2019/04/30,02:30,0.760,1.108,0.763,1.399,1.029,0.439,0.768,0.728,��,5.5,�L
2019/04/30,02:40,0.757,1.104,0.764,1.397,1.028,0.440,0.768,0.728,��,5.8,�L
2019/04/30,02:50,0.756,1.102,0.759,1.395,1.023,0.437,0.765,0.727,��,6.2,�L
2019/04/30,03:00,0.754,1.095,0.759,1.392,1.016,0.437,0.763,0.724,��쐼,5.6,�L
2019/04/30,03:10,0.751,1.088,0.755,1.384,1.013,0.435,0.759,0.723,��쐼,5.0,�L
2019/04/30,03:20,0.748,1.084,0.752,1.377,1.006,0.434,0.759,0.721,��,6.4,�L
2019/04/30,03:30,0.743,1.074,0.749,1.372,1.002,0.435,0.757,0.718,��쐼,7.2,�L
2019/04/30,03:40,0.743,1.074,0.746,1.372,0.999,0.434,0.756,0.721,��,7.4,�L
2019/04/30,03:50,0.741,1.071,0.747,1.370,0.999,0.435,0.757,0.720,��쐼,6.9,�L
2019/04/30,04:00,0.740,1.067,0.746,1.366,0.997,0.434,0.754,0.719,��,7.8,�L
2019/04/30,04:10,0.738,1.064,0.744,1.360,0.992,0.434,0.756,0.719,��,8.4,�L
2019/04/30,04:20,0.735,1.062,0.742,1.358,0.991,0.432,0.756,0.718,��,6.5,�L
2019/04/30,04:30,0.734,1.059,0.742,1.357,0.990,0.433,0.754,0.717,��,5.9,�L
2019/04/30,04:40,0.734,1.059,0.742,1.356,0.991,0.432,0.755,0.717,��,6.2,�L
2019/04/30,04:50,0.734,1.057,0.743,1.355,0.989,0.432,0.754,0.717,��,6.3,�L
2019/04/30,05:00,0.733,1.057,0.740,1.350,0.989,0.433,0.753,0.716,��,6.9,�L
2019/04/30,05:10,0.732,1.058,0.740,1.350,0.990,0.433,0.752,0.717,��,7.0,�L
2019/04/30,05:20,0.732,1.055,0.740,1.348,0.987,0.433,0.754,0.717,��,6.9,�L
2019/04/30,05:30,0.730,1.054,0.737,1.346,0.987,0.432,0.753,0.716,��,6.2,�L
2019/04/30,05:40,0.730,1.053,0.738,1.346,0.989,0.432,0.753,0.715,��,6.1,�L
2019/04/30,05:50,0.731,1.055,0.737,1.346,0.985,0.433,0.752,0.717,��,5.7,�L
2019/04/30,06:00,0.729,1.052,0.737,1.346,0.983,0.431,0.752,0.716,��쓌,5.0,�L
2019/04/30,06:10,0.731,1.052,0.735,1.344,0.986,0.432,0.753,0.716,��쓌,5.3,�L
2019/04/30,06:20,0.727,1.051,0.735,1.343,0.983,0.432,0.753,0.717,��쓌,5.1,�L
2019/04/30,06:30,0.728,1.051,0.735,1.341,0.984,0.431,0.752,0.717,��쓌,5.3,�L
2019/04/30,06:40,0.730,1.050,0.736,1.343,0.983,0.431,0.751,0.717,��쓌,5.4,�L
2019/04/30,06:50,0.729,1.053,0.735,1.341,0.980,0.430,0.751,0.715,��쓌,5.2,�L
2019/04/30,07:00,0.729,1.052,0.734,1.342,0.980,0.431,0.750,0.717,��쓌,4.5,�L
2019/04/30,07:10,0.729,1.051,0.734,1.342,0.983,0.430,0.751,0.715,��쓌,5.9,�L
2019/04/30,07:20,0.727,1.052,0.733,1.342,0.981,0.429,0.752,0.716,��쓌,6.2,�L
2019/04/30,07:30,0.728,1.051,0.733,1.339,0.980,0.431,0.751,0.714,��쓌,6.6,�L
2019/04/30,07:40,0.730,1.053,0.734,1.340,0.979,0.428,0.751,0.715,��쓌,7.3,�L
2019/04/30,07:50,0.728,1.049,0.735,1.340,0.975,0.430,0.749,0.716,��쓌,6.6,�L
2019/04/30,08:00,0.727,1.048,0.732,1.339,0.975,0.429,0.750,0.716,��쓌,7.9,�L
2019/04/30,08:10,0.724,1.047,0.733,1.338,0.976,0.429,0.750,0.714,�쓌,6.7,�L
2019/04/30,08:20,0.724,1.046,0.730,1.334,0.970,0.430,0.750,0.713,�쓌,6.6,�L
2019/04/30,08:30,0.723,1.045,0.731,1.332,0.972,0.429,0.750,0.713,�쓌,6.5,�L
2019/04/30,08:40,0.724,1.046,0.730,1.333,0.970,0.428,0.749,0.712,�쓌,6.6,�L
2019/04/30,08:50,0.722,1.043,0.729,1.331,0.970,0.428,0.749,0.712,�쓌,7.4,�L
2019/04/30,09:00,0.721,1.040,0.729,1.330,0.970,0.429,0.748,0.712,�쓌,6.7,�L
2019/04/30,09:10,0.722,1.039,0.730,1.329,0.965,0.428,0.748,0.713,�쓌,7.7,�L
2019/04/30,09:20,0.719,1.037,0.729,1.329,0.966,0.427,0.746,0.710,�쓌,6.2,�L
2019/04/30,09:30,0.722,1.041,0.729,1.328,0.968,0.428,0.748,0.710,��쓌,6.9,�L
2019/04/30,09:40,0.722,1.040,0.728,1.330,0.966,0.429,0.747,0.712,��쓌,8.9,�L
2019/04/30,09:50,0.722,1.042,0.728,1.327,0.966,0.428,0.747,0.712,��쓌,8.1,�L
2019/04/30,10:00,0.723,1.042,0.727,1.329,0.969,0.428,0.747,0.711,��쓌,7.7,�L
2019/04/30,10:10,0.721,1.039,0.728,1.328,0.965,0.429,0.748,0.709,��쓌,7.1,�L
2019/04/30,10:20,0.721,1.038,0.728,1.326,0.965,0.428,0.746,0.709,��쓌,7.2,�L
2019/04/30,10:30,0.721,1.040,0.728,1.327,0.965,0.429,0.745,0.710,��쓌,7.6,�L
2019/04/30,10:40,0.722,1.043,0.730,1.328,0.966,0.430,0.747,0.709,��쓌,7.2,�L
2019/04/30,10:50,0.723,1.044,0.731,1.329,0.967,0.429,0.748,0.712,��쓌,6.7,�L
2019/04/30,11:00,0.721,1.043,0.730,1.335,0.968,0.428,0.749,0.711,��쓌,6.8,�L
2019/04/30,11:10,0.725,1.045,0.729,1.331,0.969,0.430,0.748,0.709,��쓌,6.4,�L
2019/04/30,11:20,0.724,1.047,0.731,1.333,0.970,0.428,0.749,0.711,��쓌,7.5,�L
2019/04/30,11:30,0.725,1.047,0.731,1.334,0.968,0.429,0.750,0.711,��쓌,8.4,�L
2019/04/30,11:40,0.724,1.048,0.732,1.334,0.969,0.429,0.750,0.712,��쓌,7.7,�L
2019/04/30,11:50,0.725,1.048,0.732,1.336,0.970,0.429,0.750,0.712,��쓌,8.0,��
2019/04/30,12:00,0.725,1.047,0.732,1.333,0.971,0.429,0.751,0.712,��쓌,8.0,�L
2019/04/30,12:10,0.727,1.048,0.732,1.338,0.971,0.430,0.749,0.713,��쓌,7.1,�L
2019/04/30,12:20,0.727,1.051,0.731,1.337,0.972,0.429,0.750,0.712,��쓌,8.2,�L
2019/04/30,12:30,0.728,1.050,0.732,1.340,0.970,0.430,0.750,0.713,��쓌,6.9,�L
2019/04/30,12:40,0.727,1.053,0.732,1.339,0.970,0.431,0.750,0.712,��쓌,7.0,�L
2019/04/30,12:50,0.728,1.049,0.733,1.338,0.970,0.431,0.749,0.715,��쓌,7.1,�L
2019/04/30,13:00,0.725,1.052,0.734,1.340,0.971,0.431,0.751,0.713,��쓌,7.9,�L
2019/04/30,13:10,0.724,1.049,0.732,1.337,0.970,0.431,0.750,0.714,��쓌,7.9,�L
2019/04/30,13:20,0.729,1.051,0.732,1.339,0.971,0.430,0.752,0.714,��쓌,8.9,�L
2019/04/30,13:30,0.728,1.049,0.733,1.341,0.973,0.430,0.752,0.714,��쓌,8.6,�L
2019/04/30,13:40,0.727,1.051,0.733,1.340,0.971,0.431,0.750,0.713,��쓌,7.7,�L
2019/04/30,13:50,0.728,1.051,0.733,1.339,0.974,0.430,0.751,0.714,��,8.6,�L
2019/04/30,14:00,0.729,1.053,0.731,1.338,0.972,0.431,0.752,0.713,��,7.1,�L
2019/04/30,14:10,0.731,1.050,0.734,1.342,0.975,0.432,0.750,0.714,��,8.2,�L
2019/04/30,14:20,0.728,1.054,0.735,1.339,0.975,0.430,0.751,0.714,��,9.5,�L
2019/04/30,14:30,0.731,1.054,0.733,1.342,0.973,0.431,0.753,0.714,��,9.6,�L
2019/04/30,14:40,0.729,1.052,0.734,1.342,0.975,0.429,0.750,0.714,��,9.0,�L
2019/04/30,14:50,0.732,1.053,0.732,1.342,0.975,0.431,0.751,0.711,��,9.3,�L
2019/04/30,15:00,0.730,1.051,0.735,1.344,0.975,0.429,0.752,0.713,��,8.7,�L
2019/04/30,15:10,0.728,1.052,0.736,1.343,0.977,0.430,0.753,0.712,��,8.8,�L
2019/04/30,15:20,0.728,1.054,0.737,1.346,0.976,0.430,0.753,0.713,��,8.2,�L
2019/04/30,15:30,0.730,1.051,0.737,1.345,0.977,0.431,0.752,0.715,��,9.7,�L
2019/04/30,15:40,0.730,1.052,0.736,1.343,0.978,0.430,0.752,0.714,��,10.7,�L
2019/04/30,15:50,0.729,1.053,0.736,1.345,0.977,0.432,0.752,0.713,��,10.6,�L
2019/04/30,16:00,0.729,1.053,0.737,1.346,0.979,0.432,0.753,0.714,��,11.6,�L
2019/04/30,16:10,0.729,1.055,0.735,1.345,0.977,0.431,0.753,0.715,��,11.6,�L
2019/04/30,16:20,0.730,1.056,0.737,1.342,0.979,0.430,0.752,0.714,��,10.9,�L
2019/04/30,16:30,0.730,1.057,0.736,1.345,0.978,0.433,0.753,0.715,��,10.8,�L
2019/04/30,16:40,0.728,1.057,0.736,1.344,0.978,0.432,0.754,0.714,��,8.6,�L
2019/04/30,16:50,0.730,1.055,0.737,1.346,0.978,0.431,0.752,0.715,��,9.0,�L
2019/04/30,17:00,0.730,1.055,0.736,1.343,0.979,0.431,0.752,0.717,��,10.2,�L
2019/04/30,17:10,0.730,1.055,0.738,1.346,0.978,0.430,0.754,0.714,��,9.2,�L
2019/04/30,17:20,0.733,1.056,0.737,1.346,0.981,0.432,0.754,0.716,��,11.0,�L
2019/04/30,17:30,0.733,1.058,0.738,1.347,0.980,0.430,0.754,0.716,��,8.8,�L
2019/04/30,17:40,0.733,1.057,0.738,1.345,0.981,0.431,0.754,0.716,��,7.8,�L
2019/04/30,17:50,0.734,1.058,0.738,1.347,0.979,0.431,0.753,0.719,��,8.7,�L
2019/04/30,18:00,0.734,1.060,0.738,1.349,0.982,0.432,0.753,0.717,��,9.4,�L
2019/04/30,18:10,0.733,1.058,0.738,1.346,0.980,0.432,0.754,0.718,��,9.2,�L
2019/04/30,18:20,0.733,1.058,0.737,1.346,0.980,0.432,0.753,0.717,��,10.8,�L
2019/04/30,18:30,0.732,1.060,0.739,1.346,0.982,0.432,0.755,0.717,��쓌,12.4,�L
2019/04/30,18:40,0.732,1.056,0.737,1.347,0.981,0.434,0.753,0.717,��쓌,13.0,�L
2019/04/30,18:50,0.731,1.056,0.739,1.347,0.981,0.433,0.752,0.716,��쓌,14.7,�L
2019/04/30,19:00,0.730,1.053,0.735,1.347,0.975,0.432,0.753,0.717,��,13.8,�L
2019/04/30,19:10,0.731,1.053,0.736,1.345,0.978,0.433,0.751,0.715,��,11.4,�L
2019/04/30,19:20,0.731,1.054,0.737,1.344,0.975,0.432,0.751,0.714,��,12.5,�L
2019/04/30,19:30,0.729,1.052,0.735,1.345,0.974,0.432,0.752,0.716,��,13.1,�L
2019/04/30,19:40,0.730,1.053,0.737,1.344,0.977,0.432,0.752,0.715,��,12.2,�L
2019/04/30,19:50,0.731,1.052,0.737,1.344,0.976,0.432,0.751,0.716,��,14.7,��
2019/04/30,20:00,0.731,1.055,0.735,1.345,0.980,0.433,0.755,0.716,��,12.7,�L
2019/04/30,20:10,0.732,1.057,0.737,1.345,0.978,0.433,0.755,0.715,��,12.4,�L
2019/04/30,20:20,0.731,1.054,0.736,1.348,0.979,0.432,0.752,0.716,��쐼,10.4,��
2019/04/30,20:30,0.732,1.053,0.737,1.346,0.980,0.433,0.753,0.717,��,11.4,��
2019/04/30,20:40,0.732,1.055,0.737,1.346,0.979,0.432,0.753,0.717,��,11.1,��
2019/04/30,20:50,0.733,1.055,0.737,1.346,0.981,0.433,0.753,0.717,��쐼,9.2,��
2019/04/30,21:00,0.734,1.056,0.739,1.347,0.982,0.431,0.753,0.717,��,8.5,�L
2019/04/30,21:10,0.731,1.056,0.736,1.347,0.981,0.433,0.754,0.718,��쓌,10.5,�L
2019/04/30,21:20,0.733,1.054,0.735,1.348,0.979,0.431,0.754,0.717,��쓌,14.4,�L
2019/04/30,21:30,0.730,1.053,0.736,1.345,0.977,0.432,0.753,0.716,��,11.6,�L
2019/04/30,21:40,0.731,1.051,0.738,1.349,0.977,0.432,0.752,0.716,��,11.7,�L
2019/04/30,21:50,0.730,1.053,0.735,1.347,0.977,0.432,0.754,0.716,��쐼,10.3,��
2019/04/30,22:00,0.732,1.055,0.735,1.348,0.978,0.432,0.756,0.716,��,10.9,�L
2019/04/30,22:10,0.731,1.054,0.737,1.347,0.977,0.431,0.753,0.718,��,9.1,�L
2019/04/30,22:20,0.733,1.053,0.738,1.349,0.980,0.433,0.753,0.718,��,8.0,��
2019/04/30,22:30,0.734,1.058,0.737,1.346,0.981,0.432,0.753,0.718,��,7.4,��
2019/04/30,22:40,0.732,1.056,0.738,1.349,0.980,0.434,0.752,0.717,��,8.4,��
2019/04/30,22:50,0.733,1.057,0.737,1.348,0.980,0.432,0.754,0.718,��,6.6,��
2019/04/30,23:00,0.733,1.056,0.739,1.347,0.979,0.433,0.753,0.719,��,7.5,��
2019/04/30,23:10,0.731,1.057,0.736,1.348,0.981,0.433,0.757,0.718,��,9.1,��
2019/04/30,23:20,0.733,1.057,0.739,1.348,0.981,0.434,0.754,0.719,��,8.4,��
2019/04/30,23:30,0.732,1.056,0.738,1.347,0.982,0.434,0.755,0.718,��,9.6,��
2019/04/30,23:40,0.732,1.058,0.740,1.348,0.980,0.433,0.753,0.717,��,7.9,��
2019/04/30,23:50,0.732,1.058,0.739,1.346,0.981,0.433,0.755,0.719,��,8.0,��
